EW5610 Lyme CT US current weather conditions

sailwx.info

Wind from 049 at 1 knots gusting 6

Air temperature 8.3° C
Dewpoint 8.3° C

Last reported at 2019-Dec-14 00:00 UTC.
Time now 2019-Dec-14 00:30 UTC

Location: N 41°25' W 072°22'.
View on Google Maps.

See reports from other nearby stations

  
Tides and Currents Weather Stations Pressure Air Temp Water Temp Dewpoint Dewpoint Depression Visibility Wind Speed Wind Dir Waves Ship Positions
date/time (UTC)wind fromknots sea level pressurealtimeterstation pressurevisibilityair tempwater tempwave heightnotes
2019-Dec-14 00:00 049 1 gusting 6 8.3
2019-Dec-13 23:46 054 1 gusting 5 8.3
2019-Dec-13 23:30 053 2 gusting 6 8.3
2019-Dec-13 23:16 044 1 gusting 6 8.3
2019-Dec-13 23:00 039 7.8
2019-Dec-13 22:46 044 0 gusting 4 7.8
2019-Dec-13 22:31 045 7.8
2019-Dec-13 22:15 046 0 gusting 3 7.2
2019-Dec-13 22:01 046 0 gusting 6 7.8
2019-Dec-13 21:45 048 7.8
2019-Dec-13 21:30 049 7.8
2019-Dec-13 21:15 049 7.8
2019-Dec-13 21:00 048 0 gusting 4 7.8
2019-Dec-13 20:45 048 1 gusting 6 7.8
2019-Dec-13 20:30 047 0 gusting 5 7.8
2019-Dec-13 20:15 047 0 gusting 6 7.8
2019-Dec-13 20:00 050 7.8
2019-Dec-13 19:45 050 0 gusting 5 7.2
2019-Dec-13 19:30 051 7.2
2019-Dec-13 19:15 051 1 gusting 5 6.7
2019-Dec-13 18:47 050 0 gusting 4 6.1
2019-Dec-13 18:31 049 0 gusting 4 6.1
2019-Dec-13 18:16 049 1 gusting 3 6.1
2019-Dec-13 18:01 049 0 gusting 2 5.6
2019-Dec-13 17:46 049 0 gusting 5 5.6
2019-Dec-13 17:31 049 0 gusting 2 6.1
2019-Dec-13 17:20 049 5.6
2019-Dec-13 17:02 049 3.9
2019-Dec-13 16:31 049 4.4
2019-Dec-13 16:19 049 5.0
2019-Dec-13 16:02 049 5.6
2019-Dec-13 15:46 049 5.0
2019-Dec-13 15:32 049 2.8
2019-Dec-13 15:17 049 3.3
2019-Dec-13 15:02 049 2.8
2019-Dec-13 14:47 049 2.8
2019-Dec-13 14:30 049 3.3
2019-Dec-13 14:17 049 0 gusting 2 2.2
2019-Dec-13 14:01 049 1.7
2019-Dec-13 13:46 049 0.6
2019-Dec-13 13:30 049 0 gusting 2 0.6
2019-Dec-13 13:16 049 0 gusting 2 -0.0
2019-Dec-13 13:00 049 0 gusting 4 -0.6
2019-Dec-13 12:45 049 0 gusting 3 -0.6
2019-Dec-13 12:31 049 0 gusting 3 -1.1
2019-Dec-13 12:15 049 -1.7
2019-Dec-13 12:00 049 0 gusting 3 -1.7
2019-Dec-13 11:45 049 0 gusting 3 -1.7
2019-Dec-13 11:30 049 0 gusting 3 -2.2
2019-Dec-13 11:15 049 0 gusting 2 -2.2
2019-Dec-13 11:00 049 0 gusting 3 -2.2
2019-Dec-13 10:45 049 1 gusting 3 -2.2
2019-Dec-13 10:30 049 0 gusting 4 -2.8
2019-Dec-13 10:15 049 1 gusting 5 -2.8
2019-Dec-13 10:00 048 2 gusting 4 -2.8
2019-Dec-13 09:45 046 1 gusting 4 -2.8
2019-Dec-13 09:30 045 -3.3
2019-Dec-13 09:15 045 1 gusting 4 -3.3
2019-Dec-13 09:00 041 1 gusting 5 -3.3
2019-Dec-13 08:46 033 1 gusting 6 -3.3
2019-Dec-13 08:31 028 1 gusting 4 -3.3
2019-Dec-13 08:17 005 -3.9
2019-Dec-13 08:01 331 0 gusting 3 -3.9
2019-Dec-13 07:47 323 -3.9
2019-Dec-13 07:32 319 -4.4
2019-Dec-13 07:18 317 -5.6
2019-Dec-13 07:01 316 -6.1
2019-Dec-13 06:48 316 -5.0
2019-Dec-13 06:32 316 -5.6
2019-Dec-13 06:17 316 -5.6
2019-Dec-13 06:02 316 -5.6
2019-Dec-13 05:46 316 -5.6
2019-Dec-13 05:31 316 -5.6
2019-Dec-13 05:02 316 -6.1
2019-Dec-13 04:47 316 -6.7
2019-Dec-13 04:32 316 -6.1
2019-Dec-13 04:17 316 -6.1
2019-Dec-13 04:01 316 -6.1
2019-Dec-13 03:46 316 -6.1
2019-Dec-13 03:30 316 -6.1
2019-Dec-13 03:16 316 -6.1
2019-Dec-13 03:00 316 -6.1
2019-Dec-13 02:46 316 -6.1
2019-Dec-13 02:31 316 -5.6
2019-Dec-13 02:16 316 -5.6
2019-Dec-13 02:01 316 -5.0
2019-Dec-13 01:46 316 -5.0
2019-Dec-13 01:30 316 -5.0
2019-Dec-13 01:17 316 -4.4
2019-Dec-13 01:00 316 -4.4
2019-Dec-13 00:46 316 -3.9
2019-Dec-13 00:30 316 -3.9
2019-Dec-13 00:16 316 -3.3
2019-Dec-13 00:01 316 -3.9
2019-Dec-12 23:45 316 -3.9
2019-Dec-12 23:30 316 -3.9
2019-Dec-12 23:15 316 -3.3
2019-Dec-12 23:01 316 -3.3
2019-Dec-12 22:46 316 -3.3
2019-Dec-12 22:31 316 -1.7
2019-Dec-12 22:15 316 -0.6
2019-Dec-12 22:00 316 -0.0
2019-Dec-12 21:45 316 -0.0
2019-Dec-12 21:30 316 0.6
2019-Dec-12 21:15 316 1.1
2019-Dec-12 21:01 316 1.7
2019-Dec-12 20:45 316 2.2
2019-Dec-12 20:30 316 2.2
2019-Dec-12 20:15 316 2.8
2019-Dec-12 20:00 316 3.3
2019-Dec-12 19:45 316 2.8
2019-Dec-12 19:30 316 2.8
2019-Dec-12 19:15 317 2.2
2019-Dec-12 19:01 317 2.2
2019-Dec-12 18:45 317 2.2
2019-Dec-12 18:30 305 0 gusting 5 2.8
2019-Dec-12 18:15 302 2.2
2019-Dec-12 18:00 315 1.7
2019-Dec-12 17:45 360 1 gusting 6 1.7
2019-Dec-12 17:30 304 0 gusting 6 1.7
2019-Dec-12 17:15 310 3 gusting 6 1.7
2019-Dec-12 17:00 311 0 gusting 11 1.1
2019-Dec-12 16:45 307 3 gusting 10 0.6
2019-Dec-12 16:30 294 1 gusting 7 0.6
2019-Dec-12 16:19 339 3 gusting 9 0.6
2019-Dec-12 16:02 348 0.6
2019-Dec-12 15:47 286 1 gusting 11 -0.0
2019-Dec-12 15:45 284 0 gusting 8 -0.0
2019-Dec-12 15:32 279 1 gusting 8 -0.0
2019-Dec-12 15:18 306 -0.0
2019-Dec-12 15:03 306 -0.6
2019-Dec-12 14:47 304 -1.1
2019-Dec-12 14:33 298 -2.8
2019-Dec-12 14:18 300 2 gusting 6 -3.3
2019-Dec-12 14:03 291 1 gusting 5 -3.3
2019-Dec-12 13:46 296 -4.4
2019-Dec-12 13:31 294 -4.4
2019-Dec-12 13:17 301 -5.0
2019-Dec-12 13:01 301 -5.6
2019-Dec-12 12:47 301 -6.1
2019-Dec-12 12:31 301 -6.1
2019-Dec-12 12:17 301 -6.1
2019-Dec-12 12:01 301 -6.7
2019-Dec-12 11:47 301 -6.7
2019-Dec-12 11:31 301 -6.7
2019-Dec-12 11:18 301 -7.2
2019-Dec-12 11:01 301 -6.7
2019-Dec-12 10:46 301 -6.1
2019-Dec-12 10:31 301 -6.1
2019-Dec-12 10:16 301 -5.6
2019-Dec-12 10:01 301 -5.6
2019-Dec-12 09:45 301 -5.6
2019-Dec-12 09:31 301 -5.0
2019-Dec-12 09:16 301 -5.0
2019-Dec-12 09:01 301 -4.4
2019-Dec-12 08:46 301 -4.4
2019-Dec-12 08:31 301 1 gusting 6 -4.4
2019-Dec-12 08:16 302 -3.9
2019-Dec-12 08:00 301 1 gusting 5 -3.9
2019-Dec-12 07:45 299 0 gusting 5 -3.9
2019-Dec-12 07:30 298 2 gusting 10 -3.3
2019-Dec-12 07:01 329 6 gusting 20 -1.1
2019-Dec-12 06:45 302 2 gusting 14 -1.1
2019-Dec-12 06:31 322 -0.6
2019-Dec-12 06:15 275 0 gusting 7 -0.6
2019-Dec-12 06:00 296 1 gusting 7 -0.6
2019-Dec-12 05:45 312 1 gusting 11 -0.6
2019-Dec-12 05:34 259 0 gusting 5 -0.6
2019-Dec-12 05:17 259 -0.6
2019-Dec-12 05:02 258 -0.6
2019-Dec-12 04:47 258 -0.0
2019-Dec-12 04:32 258 0 gusting 7 -0.0
2019-Dec-12 04:17 256 1 gusting 6 -0.0
2019-Dec-12 04:02 257 3 gusting 8 -0.0
2019-Dec-12 03:47 265 -0.0
2019-Dec-12 03:32 265 0.6
2019-Dec-12 03:17 265 0 gusting 6 0.6
2019-Dec-12 03:02 234 3 gusting 8 0.6
2019-Dec-12 02:46 234 0 gusting 6 0.6
2019-Dec-12 02:32 233 2 gusting 7 0.6
2019-Dec-12 02:16 233 4 gusting 11 1.1
2019-Dec-12 02:01 235 2 gusting 8 1.1
2019-Dec-12 01:46 232 2 gusting 7 0.6
2019-Dec-12 01:32 233 3 gusting 6 0.6
2019-Dec-12 01:16 258 3 gusting 5 -0.0
2019-Dec-12 01:02 259 2 gusting 5 -0.0
2019-Dec-12 00:46 262 -0.0
2019-Dec-12 00:31 273 -0.6
2019-Dec-12 00:16 273 1 gusting 3 -0.6
2019-Dec-12 00:01 273 1 gusting 4 -0.6